PRIVATE WETTERSTATION BILLIGHEIM-ALLFELD                       ZURCK
Wetterdaten: Montag, 02.05.2022
Datum Zeit Temp. A. Temp. A. min Temp. A. max Feuchte A. Luftdruck Regen Wind Richtung Richtung Sonnenschein ET Solar Taupunkt Windchill Windben Empfang
02.05.2022 00:00 10,4 C 10,4 C 10,6 C 82 % 1018,0 hPa 0,0 l/m 0,0 km/h (0 Bft) N 0 0 min 0,025 mm 0 W/m 7,5 C 10,4 C 0,0 km/h (0 Bft) 100 %
02.05.2022 00:10 10,2 C 10,2 C 10,4 C 84 % 1017,9 hPa 0,0 l/m 0,0 km/h (0 Bft) N 0 0 min 0,000 mm 0 W/m 7,6 C 10,2 C 0,0 km/h (0 Bft) 100 %
02.05.2022 00:20 10,1 C 10,1 C 10,2 C 85 % 1017,8 hPa 0,0 l/m 0,0 km/h (0 Bft) N 0 0 min 0,000 mm 0 W/m 7,7 C 10,1 C 0,0 km/h (0 Bft) 100 %
02.05.2022 00:30 9,9 C 9,9 C 10,1 C 86 % 1017,8 hPa 0,0 l/m 0,0 km/h (0 Bft) N 0 0 min 0,000 mm 0 W/m 7,7 C 9,9 C 0,0 km/h (0 Bft) 99 %
02.05.2022 00:40 9,8 C 9,8 C 9,9 C 86 % 1017,7 hPa 0,0 l/m 0,0 km/h (0 Bft) N 0 0 min 0,000 mm 0 W/m 7,6 C 9,8 C 0,0 km/h (0 Bft) 100 %
02.05.2022 00:50 9,7 C 9,7 C 9,8 C 86 % 1017,7 hPa 0,0 l/m 0,0 km/h (0 Bft) N 0 0 min 0,000 mm 0 W/m 7,5 C 9,7 C 0,0 km/h (0 Bft) 100 %
02.05.2022 01:00 9,6 C 9,6 C 9,7 C 87 % 1017,5 hPa 0,0 l/m 0,0 km/h (0 Bft) N 0 0 min 0,000 mm 0 W/m 7,5 C 9,6 C 0,0 km/h (0 Bft) 100 %
02.05.2022 01:10 9,5 C 9,5 C 9,6 C 87 % 1017,6 hPa 0,0 l/m 0,0 km/h (0 Bft) N 0 0 min 0,000 mm 0 W/m 7,4 C 9,5 C 0,0 km/h (0 Bft) 100 %
02.05.2022 01:20 9,4 C 9,3 C 9,5 C 88 % 1017,5 hPa 0,0 l/m 0,0 km/h (0 Bft) N 360 0 min 0,000 mm 0 W/m 7,5 C 9,4 C 3,2 km/h (1 Bft) 100 %
02.05.2022 01:30 9,2 C 9,2 C 9,3 C 89 % 1017,5 hPa 0,0 l/m 0,0 km/h (0 Bft) N 0 0 min 0,000 mm 0 W/m 7,5 C 9,2 C 0,0 km/h (0 Bft) 100 %
02.05.2022 01:40 9,0 C 9,0 C 9,2 C 88 % 1017,4 hPa 0,0 l/m 0,0 km/h (0 Bft) N 0 0 min 0,000 mm 0 W/m 7,1 C 9,0 C 0,0 km/h (0 Bft) 100 %
02.05.2022 01:50 8,8 C 8,8 C 9,0 C 89 % 1017,4 hPa 0,0 l/m 0,0 km/h (0 Bft) N 0 0 min 0,000 mm 0 W/m 7,1 C 8,8 C 0,0 km/h (0 Bft) 100 %
02.05.2022 02:00 8,5 C 8,5 C 8,8 C 89 % 1017,4 hPa 0,0 l/m 0,0 km/h (0 Bft) N 0 0 min 0,000 mm 0 W/m 6,8 C 8,5 C 0,0 km/h (0 Bft) 98 %
02.05.2022 02:10 8,3 C 8,3 C 8,5 C 90 % 1017,4 hPa 0,0 l/m 0,0 km/h (0 Bft) N 360 0 min 0,000 mm 0 W/m 6,8 C 8,3 C 3,2 km/h (1 Bft) 98 %
02.05.2022 02:20 8,1 C 8,1 C 8,3 C 90 % 1017,4 hPa 0,0 l/m 0,0 km/h (0 Bft) N 0 0 min 0,000 mm 0 W/m 6,6 C 8,1 C 0,0 km/h (0 Bft) 97 %
02.05.2022 02:30 8,0 C 8,0 C 8,1 C 90 % 1017,3 hPa 0,0 l/m 0,0 km/h (0 Bft) N 0 0 min 0,000 mm 0 W/m 6,5 C 8,0 C 0,0 km/h (0 Bft) 97 %
02.05.2022 02:40 7,9 C 7,9 C 8,0 C 90 % 1017,3 hPa 0,0 l/m 0,0 km/h (0 Bft) N 0 0 min 0,000 mm 0 W/m 6,4 C 7,9 C 0,0 km/h (0 Bft) 97 %
02.05.2022 02:50 7,8 C 7,8 C 7,9 C 91 % 1017,1 hPa 0,0 l/m 0,0 km/h (0 Bft) N 0 0 min 0,000 mm 0 W/m 6,4 C 7,8 C 0,0 km/h (0 Bft) 96 %
02.05.2022 03:00 7,6 C 7,6 C 7,8 C 91 % 1017,1 hPa 0,0 l/m 0,0 km/h (0 Bft) N 0 0 min 0,000 mm 0 W/m 6,2 C 7,6 C 0,0 km/h (0 Bft) 96 %
02.05.2022 03:10 7,5 C 7,5 C 7,6 C 91 % 1017,1 hPa 0,0 l/m 0,0 km/h (0 Bft) N 0 0 min 0,000 mm 0 W/m 6,1 C 7,5 C 0,0 km/h (0 Bft) 97 %
02.05.2022 03:20 7,4 C 7,4 C 7,5 C 91 % 1017,1 hPa 0,0 l/m 0,0 km/h (0 Bft) N 0 0 min 0,000 mm 0 W/m 6,0 C 7,4 C 0,0 km/h (0 Bft) 97 %
02.05.2022 03:30 7,4 C 7,4 C 7,4 C 91 % 1017,0 hPa 0,0 l/m 0,0 km/h (0 Bft) N 0 0 min 0,000 mm 0 W/m 6,0 C 7,4 C 0,0 km/h (0 Bft) 96 %
02.05.2022 03:40 7,3 C 7,3 C 7,4 C 91 % 1016,9 hPa 0,0 l/m 0,0 km/h (0 Bft) N 360 0 min 0,000 mm 0 W/m 5,9 C 7,3 C 1,6 km/h (1 Bft) 97 %
02.05.2022 03:50 7,3 C 7,3 C 7,3 C 91 % 1016,8 hPa 0,0 l/m 0,0 km/h (0 Bft) N 360 0 min 0,000 mm 0 W/m 5,9 C 7,3 C 1,6 km/h (1 Bft) 97 %
02.05.2022 04:00 7,2 C 7,2 C 7,3 C 91 % 1016,9 hPa 0,0 l/m 0,0 km/h (0 Bft) N 0 0 min 0,000 mm 0 W/m 5,8 C 7,2 C 0,0 km/h (0 Bft) 98 %
02.05.2022 04:10 7,2 C 7,1 C 7,3 C 91 % 1016,9 hPa 0,0 l/m 0,0 km/h (0 Bft) N 0 0 min 0,000 mm 0 W/m 5,8 C 7,2 C 0,0 km/h (0 Bft) 97 %
02.05.2022 04:20 7,1 C 7,1 C 7,2 C 91 % 1016,9 hPa 0,0 l/m 0,0 km/h (0 Bft) N 0 0 min 0,000 mm 0 W/m 5,7 C 7,1 C 0,0 km/h (0 Bft) 97 %
02.05.2022 04:30 7,0 C 7,0 C 7,1 C 91 % 1016,8 hPa 0,0 l/m 0,0 km/h (0 Bft) N 0 0 min 0,000 mm 0 W/m 5,6 C 7,0 C 0,0 km/h (0 Bft) 98 %
02.05.2022 04:40 6,9 C 6,9 C 7,0 C 91 % 1016,8 hPa 0,0 l/m 0,0 km/h (0 Bft) N 0 0 min 0,000 mm 0 W/m 5,5 C 6,9 C 0,0 km/h (0 Bft) 97 %
02.05.2022 04:50 6,8 C 6,8 C 6,9 C 91 % 1016,7 hPa 0,0 l/m 0,0 km/h (0 Bft) N 0 0 min 0,000 mm 0 W/m 5,4 C 6,8 C 0,0 km/h (0 Bft) 97 %
02.05.2022 05:00 6,8 C 6,8 C 6,9 C 91 % 1016,6 hPa 0,0 l/m 0,0 km/h (0 Bft) N 0 0 min 0,000 mm 0 W/m 5,4 C 6,8 C 0,0 km/h (0 Bft) 98 %
02.05.2022 05:10 6,8 C 6,8 C 6,8 C 91 % 1016,5 hPa 0,0 l/m 0,0 km/h (0 Bft) N 0 0 min 0,000 mm 0 W/m 5,4 C 6,8 C 0,0 km/h (0 Bft) 97 %
02.05.2022 05:20 6,9 C 6,8 C 6,9 C 91 % 1016,4 hPa 0,0 l/m 0,0 km/h (0 Bft) N 0 0 min 0,000 mm 0 W/m 5,5 C 6,9 C 0,0 km/h (0 Bft) 97 %
02.05.2022 05:30 6,8 C 6,8 C 6,9 C 91 % 1016,4 hPa 0,0 l/m 0,0 km/h (0 Bft) N 360 0 min 0,000 mm 0 W/m 5,4 C 6,8 C 3,2 km/h (1 Bft) 97 %
02.05.2022 05:40 6,8 C 6,8 C 6,8 C 91 % 1016,4 hPa 0,0 l/m 0,0 km/h (0 Bft) N 360 0 min 0,000 mm 0 W/m 5,4 C 6,8 C 3,2 km/h (1 Bft) 98 %
02.05.2022 05:50 6,8 C 6,8 C 6,8 C 91 % 1016,3 hPa 0,0 l/m 0,0 km/h (0 Bft) N 0 0 min 0,000 mm 0 W/m 5,4 C 6,8 C 0,0 km/h (0 Bft) 98 %
02.05.2022 06:00 6,8 C 6,8 C 6,8 C 91 % 1016,3 hPa 0,0 l/m 0,0 km/h (0 Bft) N 0 0 min 0,000 mm 0 W/m 5,4 C 6,8 C 0,0 km/h (0 Bft) 98 %
02.05.2022 06:10 6,8 C 6,8 C 6,8 C 91 % 1016,3 hPa 0,0 l/m 0,0 km/h (0 Bft) N 0 0 min 0,000 mm 5 W/m 5,4 C 6,8 C 0,0 km/h (0 Bft) 97 %
02.05.2022 06:20 6,7 C 6,7 C 6,8 C 91 % 1016,4 hPa 0,0 l/m 0,0 km/h (0 Bft) N 0 0 min 0,000 mm 12 W/m 5,3 C 6,7 C 0,0 km/h (0 Bft) 97 %
02.05.2022 06:30 6,7 C 6,7 C 6,7 C 91 % 1016,3 hPa 0,0 l/m 0,0 km/h (0 Bft) N 0 0 min 0,000 mm 21 W/m 5,3 C 6,7 C 0,0 km/h (0 Bft) 98 %
02.05.2022 06:40 6,7 C 6,7 C 6,7 C 91 % 1016,4 hPa 0,0 l/m 0,0 km/h (0 Bft) N 0 0 min 0,000 mm 39 W/m 5,3 C 6,7 C 0,0 km/h (0 Bft) 97 %
02.05.2022 06:50 6,9 C 6,7 C 6,9 C 91 % 1016,4 hPa 0,0 l/m 0,0 km/h (0 Bft) N 0 0 min 0,000 mm 49 W/m 5,5 C 6,9 C 0,0 km/h (0 Bft) 97 %
02.05.2022 07:00 7,1 C 6,9 C 7,1 C 91 % 1016,4 hPa 0,0 l/m 0,0 km/h (0 Bft) N 0 0 min 0,000 mm 63 W/m 5,7 C 7,1 C 0,0 km/h (0 Bft) 97 %
02.05.2022 07:10 7,3 C 7,1 C 7,3 C 91 % 1016,4 hPa 0,0 l/m 0,0 km/h (0 Bft) N 0 0 min 0,000 mm 77 W/m 5,9 C 7,3 C 0,0 km/h (0 Bft) 89 %
02.05.2022 07:20 7,7 C 7,3 C 7,7 C 91 % 1016,2 hPa 0,0 l/m 0,0 km/h (0 Bft) N 0 0 min 0,000 mm 100 W/m 6,3 C 7,7 C 0,0 km/h (0 Bft) 98 %
02.05.2022 07:30 8,1 C 7,7 C 8,1 C 91 % 1016,3 hPa 0,0 l/m 0,0 km/h (0 Bft) N 0 0 min 0,000 mm 100 W/m 6,7 C 8,1 C 0,0 km/h (0 Bft) 97 %
02.05.2022 07:40 8,4 C 8,1 C 8,4 C 91 % 1016,2 hPa 0,0 l/m 0,0 km/h (0 Bft) N 0 0 min 0,000 mm 98 W/m 7,0 C 8,4 C 0,0 km/h (0 Bft) 98 %
02.05.2022 07:50 8,7 C 8,4 C 8,8 C 91 % 1016,2 hPa 0,0 l/m 0,0 km/h (0 Bft) N 0 0 min 0,000 mm 114 W/m 7,3 C 8,7 C 0,0 km/h (0 Bft) 97 %
02.05.2022 08:00 9,1 C 8,8 C 9,1 C 91 % 1016,1 hPa 0,0 l/m 0,0 km/h (0 Bft) N-NO 22 0 min 0,051 mm 137 W/m 7,7 C 9,1 C 3,2 km/h (1 Bft) 98 %
02.05.2022 08:10 9,4 C 9,1 C 9,4 C 91 % 1016,2 hPa 0,0 l/m 0,0 km/h (0 Bft) N-NO 22 10 min 0,000 mm 160 W/m 8,0 C 9,4 C 1,6 km/h (1 Bft) 98 %
02.05.2022 08:20 9,8 C 9,5 C 9,8 C 91 % 1016,4 hPa 0,0 l/m 0,0 km/h (0 Bft) N 0 10 min 0,000 mm 163 W/m 8,4 C 9,8 C 0,0 km/h (0 Bft) 97 %
02.05.2022 08:30 10,2 C 9,8 C 10,2 C 89 % 1016,3 hPa 0,0 l/m 0,0 km/h (0 Bft) N 360 10 min 0,000 mm 188 W/m 8,5 C 10,2 C 4,8 km/h (1 Bft) 98 %
02.05.2022 08:40 10,5 C 10,2 C 10,5 C 87 % 1016,4 hPa 0,0 l/m 0,0 km/h (0 Bft) N 360 10 min 0,000 mm 221 W/m 8,4 C 10,5 C 3,2 km/h (1 Bft) 98 %
02.05.2022 08:50 10,7 C 10,5 C 10,7 C 87 % 1016,5 hPa 0,0 l/m 0,0 km/h (0 Bft) N 0 10 min 0,000 mm 246 W/m 8,6 C 10,7 C 0,0 km/h (0 Bft) 98 %
02.05.2022 09:00 11,0 C 10,7 C 11,0 C 86 % 1016,3 hPa 0,0 l/m 0,0 km/h (0 Bft) N 360 10 min 0,102 mm 353 W/m 8,7 C 11,0 C 6,4 km/h (2 Bft) 98 %
02.05.2022 09:10 11,3 C 11,0 C 11,3 C 85 % 1016,3 hPa 0,0 l/m 0,0 km/h (0 Bft) N 360 10 min 0,000 mm 297 W/m 8,9 C 11,3 C 1,6 km/h (1 Bft) 98 %
02.05.2022 09:20 11,7 C 11,3 C 11,7 C 84 % 1016,2 hPa 0,0 l/m 0,0 km/h (0 Bft) NO 45 10 min 0,000 mm 396 W/m 9,1 C 11,7 C 6,4 km/h (2 Bft) 97 %
02.05.2022 09:30 12,1 C 11,7 C 12,1 C 83 % 1016,2 hPa 0,0 l/m 0,0 km/h (0 Bft) NO 45 10 min 0,000 mm 489 W/m 9,3 C 12,1 C 1,6 km/h (1 Bft) 98 %
02.05.2022 09:40 12,7 C 12,1 C 12,7 C 82 % 1016,2 hPa 0,0 l/m 0,0 km/h (0 Bft) O-NO 67 10 min 0,000 mm 661 W/m 9,7 C 12,7 C 1,6 km/h (1 Bft) 98 %
02.05.2022 09:50 13,2 C 12,8 C 13,2 C 81 % 1016,1 hPa 0,0 l/m 0,0 km/h (0 Bft) O-NO 67 10 min 0,000 mm 591 W/m 10,0 C 13,2 C 1,6 km/h (1 Bft) 98 %
02.05.2022 10:00 13,7 C 13,2 C 13,7 C 79 % 1016,1 hPa 0,0 l/m 0,0 km/h (0 Bft) NO 45 10 min 0,203 mm 548 W/m 10,1 C 13,7 C 1,6 km/h (1 Bft) 98 %
02.05.2022 10:10 13,8 C 13,7 C 13,8 C 77 % 1016,0 hPa 0,0 l/m 0,0 km/h (0 Bft) NO 45 10 min 0,000 mm 547 W/m 9,8 C 13,8 C 1,6 km/h (1 Bft) 98 %
02.05.2022 10:20 14,2 C 13,8 C 14,2 C 76 % 1016,1 hPa 0,0 l/m 0,0 km/h (0 Bft) O-NO 67 10 min 0,000 mm 563 W/m 10,0 C 14,2 C 1,6 km/h (1 Bft) 97 %
02.05.2022 10:30 14,4 C 14,2 C 14,4 C 76 % 1016,1 hPa 0,0 l/m 0,0 km/h (0 Bft) NO 45 10 min 0,000 mm 594 W/m 10,2 C 14,4 C 1,6 km/h (1 Bft) 98 %
02.05.2022 10:40 14,8 C 14,4 C 14,8 C 75 % 1016,1 hPa 0,0 l/m 0,0 km/h (0 Bft) N-NO 22 10 min 0,000 mm 652 W/m 10,4 C 14,8 C 4,8 km/h (1 Bft) 98 %
02.05.2022 10:50 15,1 C 14,8 C 15,1 C 71 % 1016,0 hPa 0,0 l/m 0,0 km/h (0 Bft) N-NW 337 10 min 0,000 mm 668 W/m 9,9 C 15,1 C 8,0 km/h (2 Bft) 98 %
02.05.2022 11:00 15,4 C 15,1 C 15,4 C 72 % 1015,9 hPa 0,0 l/m 0,0 km/h (0 Bft) N-NW 337 10 min 0,305 mm 664 W/m 10,4 C 15,4 C 6,4 km/h (2 Bft) 98 %
02.05.2022 11:10 15,6 C 15,4 C 15,6 C 71 % 1015,7 hPa 0,0 l/m 0,0 km/h (0 Bft) N-NW 337 10 min 0,000 mm 682 W/m 10,4 C 15,6 C 6,4 km/h (2 Bft) 97 %
02.05.2022 11:20 15,9 C 15,6 C 15,9 C 72 % 1015,8 hPa 0,0 l/m 0,0 km/h (0 Bft) N 360 10 min 0,000 mm 726 W/m 10,9 C 15,9 C 8,0 km/h (2 Bft) 97 %
02.05.2022 11:30 16,3 C 16,0 C 16,3 C 72 % 1015,8 hPa 0,0 l/m 0,0 km/h (0 Bft) N 360 10 min 0,000 mm 744 W/m 11,2 C 16,3 C 1,6 km/h (1 Bft) 98 %
02.05.2022 11:40 16,6 C 16,3 C 16,6 C 70 % 1015,7 hPa 0,0 l/m 0,0 km/h (0 Bft) N 360 10 min 0,000 mm 745 W/m 11,1 C 16,6 C 1,6 km/h (1 Bft) 98 %
02.05.2022 11:50 17,0 C 16,6 C 17,0 C 69 % 1015,7 hPa 0,0 l/m 0,0 km/h (0 Bft) N 360 10 min 0,000 mm 786 W/m 11,3 C 17,0 C 1,6 km/h (1 Bft) 97 %
02.05.2022 12:00 17,5 C 17,0 C 17,5 C 64 % 1015,7 hPa 0,0 l/m 1,6 km/h (1 Bft) SO 135 10 min 0,381 mm 838 W/m 10,6 C 17,5 C 9,7 km/h (2 Bft) 98 %
02.05.2022 12:10 17,1 C 17,1 C 17,5 C 63 % 1015,6 hPa 0,0 l/m 0,0 km/h (0 Bft) O-SO 112 10 min 0,000 mm 846 W/m 10,0 C 17,1 C 9,7 km/h (2 Bft) 97 %
02.05.2022 12:20 17,1 C 17,1 C 17,1 C 62 % 1015,6 hPa 0,0 l/m 0,0 km/h (0 Bft) O-NO 67 10 min 0,000 mm 889 W/m 9,8 C 17,1 C 9,7 km/h (2 Bft) 97 %
02.05.2022 12:30 16,7 C 16,7 C 17,1 C 66 % 1015,6 hPa 0,0 l/m 0,0 km/h (0 Bft) S-SO 157 10 min 0,000 mm 278 W/m 10,3 C 16,7 C 9,7 km/h (2 Bft) 98 %
02.05.2022 12:40 16,6 C 16,6 C 16,7 C 65 % 1015,5 hPa 0,0 l/m 0,0 km/h (0 Bft) SO 135 10 min 0,000 mm 267 W/m 10,0 C 16,6 C 4,8 km/h (1 Bft) 98 %
02.05.2022 12:50 16,7 C 16,6 C 16,7 C 65 % 1015,4 hPa 0,0 l/m 0,0 km/h (0 Bft) SO 135 10 min 0,000 mm 299 W/m 10,1 C 16,7 C 1,6 km/h (1 Bft) 98 %
02.05.2022 13:00 16,9 C 16,7 C 16,9 C 63 % 1015,2 hPa 0,0 l/m 0,0 km/h (0 Bft) SO 135 10 min 0,203 mm 584 W/m 9,8 C 16,9 C 6,4 km/h (2 Bft) 98 %
02.05.2022 13:20 17,4 C 16,7 C 17,4 C 67 % 1015,0 hPa 0,0 l/m 0,0 km/h (0 Bft) N-NW 338 20 min 0,000 mm 357 W/m 11,2 C 17,4 C 0,0 km/h (0 Bft) 96 %
02.05.2022 13:30 17,4 C 17,3 C 17,4 C 64 % 1015,1 hPa 0,0 l/m 0,0 km/h (0 Bft) N 350 10 min 0,000 mm 302 W/m 10,5 C 17,4 C 0,0 km/h (0 Bft) 100 %
02.05.2022 13:40 17,2 C 17,2 C 17,4 C 61 % 1014,9 hPa 0,0 l/m 0,8 km/h (0 Bft) O 93 10 min 0,000 mm 292 W/m 9,6 C 17,2 C 9,7 km/h (2 Bft) 100 %
02.05.2022 13:50 17,3 C 17,1 C 17,3 C 62 % 1014,9 hPa 0,0 l/m 0,0 km/h (0 Bft) O 97 10 min 0,000 mm 457 W/m 9,9 C 17,3 C 1,6 km/h (1 Bft) 100 %
02.05.2022 14:00 17,4 C 17,3 C 17,4 C 64 % 1014,9 hPa 0,0 l/m 0,0 km/h (0 Bft) O 91 10 min 0,000 mm 294 W/m 10,5 C 17,4 C 0,0 km/h (0 Bft) 100 %
02.05.2022 14:10 17,4 C 17,4 C 17,4 C 62 % 1014,9 hPa 0,0 l/m 0,0 km/h (0 Bft) SO 141 10 min 0,203 mm 357 W/m 10,0 C 17,4 C 1,6 km/h (1 Bft) 100 %
02.05.2022 14:20 17,6 C 17,4 C 17,6 C 63 % 1014,8 hPa 0,0 l/m 0,0 km/h (0 Bft) SO 130 10 min 0,000 mm 318 W/m 10,5 C 17,6 C 1,6 km/h (1 Bft) 99 %
02.05.2022 14:30 17,5 C 17,5 C 17,7 C 62 % 1014,8 hPa 0,0 l/m 0,0 km/h (0 Bft) SO 130 10 min 0,000 mm 186 W/m 10,1 C 17,5 C 0,0 km/h (0 Bft) 98 %
02.05.2022 14:40 17,3 C 17,3 C 17,5 C 65 % 1014,8 hPa 0,0 l/m 0,0 km/h (0 Bft) SO 130 10 min 0,000 mm 251 W/m 10,7 C 17,3 C 0,0 km/h (0 Bft) 98 %
02.05.2022 14:50 17,3 C 17,3 C 17,3 C 62 % 1014,8 hPa 0,0 l/m 0,0 km/h (0 Bft) SO 130 10 min 0,000 mm 566 W/m 9,9 C 17,3 C 1,6 km/h (1 Bft) 97 %
02.05.2022 15:00 17,9 C 17,3 C 17,9 C 62 % 1014,5 hPa 0,0 l/m 0,0 km/h (0 Bft) SW 215 10 min 0,203 mm 526 W/m 10,5 C 17,9 C 1,6 km/h (1 Bft) 98 %
02.05.2022 15:10 18,2 C 17,9 C 18,2 C 59 % 1014,4 hPa 0,0 l/m 0,0 km/h (0 Bft) N-NO 24 10 min 0,000 mm 364 W/m 10,1 C 18,2 C 1,6 km/h (1 Bft) 97 %
02.05.2022 15:20 18,2 C 18,1 C 18,2 C 61 % 1014,4 hPa 0,0 l/m 0,0 km/h (0 Bft) N 11 10 min 0,000 mm 886 W/m 10,6 C 18,2 C 1,6 km/h (1 Bft) 97 %
02.05.2022 15:30 18,5 C 18,2 C 18,5 C 62 % 1014,4 hPa 0,0 l/m 0,2 km/h (0 Bft) O-NO 70 10 min 0,000 mm 497 W/m 11,1 C 18,5 C 4,8 km/h (1 Bft) 98 %
02.05.2022 15:40 18,4 C 18,4 C 18,5 C 57 % 1014,2 hPa 0,0 l/m 0,2 km/h (0 Bft) O-NO 67 10 min 0,000 mm 417 W/m 9,7 C 18,4 C 8,0 km/h (2 Bft) 97 %
02.05.2022 15:50 18,3 C 18,3 C 18,4 C 60 % 1014,2 hPa 0,0 l/m 0,3 km/h (0 Bft) N-NW 344 10 min 0,000 mm 362 W/m 10,4 C 18,3 C 8,0 km/h (2 Bft) 98 %
02.05.2022 16:00 18,3 C 18,3 C 18,3 C 59 % 1014,2 hPa 0,0 l/m 0,1 km/h (0 Bft) N 351 10 min 0,000 mm 376 W/m 10,1 C 18,3 C 4,8 km/h (1 Bft) 97 %
02.05.2022 16:10 18,4 C 18,3 C 18,4 C 59 % 1014,0 hPa 0,0 l/m 0,0 km/h (0 Bft) N 360 10 min 0,254 mm 359 W/m 10,2 C 18,4 C 1,6 km/h (1 Bft) 98 %
02.05.2022 16:20 18,6 C 18,4 C 18,6 C 59 % 1013,8 hPa 0,0 l/m 0,0 km/h (0 Bft) N 5 10 min 0,000 mm 425 W/m 10,4 C 18,6 C 0,0 km/h (0 Bft) 98 %
02.05.2022 16:30 18,7 C 18,6 C 18,7 C 58 % 1013,9 hPa 0,0 l/m 0,0 km/h (0 Bft) N 360 10 min 0,000 mm 302 W/m 10,3 C 18,7 C 0,0 km/h (0 Bft) 98 %
02.05.2022 16:40 18,7 C 18,7 C 18,7 C 59 % 1013,8 hPa 0,0 l/m 0,0 km/h (0 Bft) N 355 10 min 0,000 mm 258 W/m 10,5 C 18,7 C 1,6 km/h (1 Bft) 97 %
02.05.2022 16:50 18,4 C 18,4 C 18,7 C 57 % 1013,7 hPa 0,0 l/m 0,0 km/h (0 Bft) N 355 10 min 0,000 mm 278 W/m 9,7 C 18,4 C 0,0 km/h (0 Bft) 97 %
02.05.2022 17:00 18,4 C 18,3 C 18,4 C 58 % 1013,7 hPa 0,0 l/m 0,4 km/h (0 Bft) NW 325 10 min 0,204 mm 299 W/m 10,0 C 18,4 C 9,7 km/h (2 Bft) 98 %
02.05.2022 17:10 18,5 C 18,4 C 18,5 C 58 % 1013,6 hPa 0,0 l/m 0,4 km/h (0 Bft) NW 324 10 min 0,000 mm 285 W/m 10,1 C 18,5 C 8,0 km/h (2 Bft) 97 %
02.05.2022 17:20 18,6 C 18,5 C 18,6 C 58 % 1013,5 hPa 0,0 l/m 0,0 km/h (0 Bft) NW 326 10 min 0,000 mm 234 W/m 10,2 C 18,6 C 0,0 km/h (0 Bft) 98 %
02.05.2022 17:30 18,6 C 18,6 C 18,6 C 59 % 1013,5 hPa 0,0 l/m 0,0 km/h (0 Bft) NW 325 10 min 0,000 mm 301 W/m 10,4 C 18,6 C 0,0 km/h (0 Bft) 97 %
02.05.2022 17:40 18,6 C 18,6 C 18,7 C 57 % 1013,5 hPa 0,0 l/m 0,0 km/h (0 Bft) NW 325 10 min 0,000 mm 239 W/m 9,9 C 18,6 C 0,0 km/h (0 Bft) 98 %
02.05.2022 17:50 18,8 C 18,6 C 18,8 C 59 % 1013,4 hPa 0,0 l/m 0,0 km/h (0 Bft) N-NW 327 10 min 0,000 mm 243 W/m 10,6 C 18,8 C 1,6 km/h (1 Bft) 97 %
02.05.2022 18:00 18,8 C 18,8 C 18,9 C 56 % 1013,4 hPa 0,0 l/m 0,0 km/h (0 Bft) N-NW 327 10 min 0,152 mm 206 W/m 9,8 C 18,8 C 0,0 km/h (0 Bft) 97 %
02.05.2022 18:10 18,8 C 18,8 C 18,9 C 61 % 1013,4 hPa 0,0 l/m 0,0 km/h (0 Bft) N-NW 327 10 min 0,000 mm 181 W/m 11,1 C 18,8 C 1,6 km/h (1 Bft) 97 %
02.05.2022 18:20 18,5 C 18,5 C 18,8 C 59 % 1013,4 hPa 0,0 l/m 0,0 km/h (0 Bft) N-NW 327 0 min 0,000 mm 113 W/m 10,3 C 18,5 C 0,0 km/h (0 Bft) 97 %
02.05.2022 18:30 18,3 C 18,3 C 18,5 C 59 % 1013,3 hPa 0,0 l/m 0,0 km/h (0 Bft) N-NW 327 0 min 0,000 mm 102 W/m 10,1 C 18,3 C 0,0 km/h (0 Bft) 98 %
02.05.2022 18:40 18,1 C 18,1 C 18,3 C 61 % 1013,3 hPa 0,0 l/m 0,0 km/h (0 Bft) N-NW 327 0 min 0,000 mm 105 W/m 10,5 C 18,1 C 0,0 km/h (0 Bft) 97 %
02.05.2022 18:50 17,9 C 17,9 C 18,1 C 60 % 1013,2 hPa 0,0 l/m 0,0 km/h (0 Bft) N-NW 328 0 min 0,000 mm 90 W/m 10,0 C 17,9 C 0,0 km/h (0 Bft) 97 %
02.05.2022 19:00 17,7 C 17,7 C 17,9 C 63 % 1013,1 hPa 0,0 l/m 0,0 km/h (0 Bft) N-NW 328 0 min 0,076 mm 100 W/m 10,6 C 17,7 C 0,0 km/h (0 Bft) 98 %
02.05.2022 19:10 17,5 C 17,5 C 17,7 C 65 % 1013,1 hPa 0,0 l/m 0,0 km/h (0 Bft) N-NW 328 0 min 0,000 mm 62 W/m 10,8 C 17,5 C 0,0 km/h (0 Bft) 97 %
02.05.2022 19:20 17,2 C 17,2 C 17,5 C 63 % 1013,1 hPa 0,0 l/m 0,0 km/h (0 Bft) N-NW 328 0 min 0,000 mm 47 W/m 10,1 C 17,2 C 0,0 km/h (0 Bft) 98 %
02.05.2022 19:30 16,8 C 16,8 C 17,2 C 62 % 1013,2 hPa 0,0 l/m 0,0 km/h (0 Bft) N-NW 328 0 min 0,000 mm 42 W/m 9,5 C 16,8 C 0,0 km/h (0 Bft) 97 %
02.05.2022 19:40 16,6 C 16,6 C 16,8 C 64 % 1013,2 hPa 0,0 l/m 0,0 km/h (0 Bft) N-NW 328 0 min 0,000 mm 40 W/m 9,8 C 16,6 C 0,0 km/h (0 Bft) 98 %
02.05.2022 19:50 16,3 C 16,3 C 16,6 C 63 % 1013,2 hPa 0,0 l/m 0,0 km/h (0 Bft) N-NW 328 0 min 0,000 mm 37 W/m 9,2 C 16,3 C 0,0 km/h (0 Bft) 97 %
02.05.2022 20:00 16,2 C 16,2 C 16,3 C 65 % 1013,2 hPa 0,0 l/m 0,0 km/h (0 Bft) N-NW 328 0 min 0,026 mm 32 W/m 9,6 C 16,2 C 0,0 km/h (0 Bft) 98 %
02.05.2022 20:10 15,8 C 15,8 C 16,2 C 66 % 1013,3 hPa 0,0 l/m 0,0 km/h (0 Bft) N-NW 328 0 min 0,000 mm 26 W/m 9,5 C 15,8 C 0,0 km/h (0 Bft) 97 %
02.05.2022 20:20 15,4 C 15,4 C 15,8 C 67 % 1013,3 hPa 0,0 l/m 0,0 km/h (0 Bft) N-NW 328 0 min 0,000 mm 18 W/m 9,3 C 15,4 C 0,0 km/h (0 Bft) 97 %
02.05.2022 20:30 15,1 C 15,1 C 15,4 C 67 % 1013,4 hPa 0,0 l/m 0,0 km/h (0 Bft) N-NW 328 0 min 0,000 mm 12 W/m 9,0 C 15,1 C 0,0 km/h (0 Bft) 98 %
02.05.2022 20:40 14,8 C 14,8 C 15,1 C 69 % 1013,4 hPa 0,0 l/m 0,0 km/h (0 Bft) N-NW 328 0 min 0,000 mm 5 W/m 9,2 C 14,8 C 0,0 km/h (0 Bft) 97 %
02.05.2022 20:50 14,6 C 14,6 C 14,9 C 69 % 1013,5 hPa 0,0 l/m 0,0 km/h (0 Bft) N-NW 328 0 min 0,000 mm 0 W/m 9,0 C 14,6 C 0,0 km/h (0 Bft) 98 %
02.05.2022 21:00 14,3 C 14,3 C 14,6 C 72 % 1013,6 hPa 0,0 l/m 0,0 km/h (0 Bft) N-NW 328 0 min 0,025 mm 0 W/m 9,3 C 14,3 C 0,0 km/h (0 Bft) 97 %
02.05.2022 21:10 13,9 C 13,9 C 14,3 C 72 % 1013,6 hPa 0,0 l/m 0,0 km/h (0 Bft) N 0 0 min 0,000 mm 0 W/m 8,9 C 13,9 C 0,0 km/h (0 Bft) 100 %
02.05.2022 21:20 13,5 C 13,5 C 13,9 C 74 % 1013,7 hPa 0,0 l/m 0,0 km/h (0 Bft) N-NW 337 0 min 0,000 mm 0 W/m 9,0 C 13,5 C 6,4 km/h (2 Bft) 100 %
02.05.2022 21:30 13,2 C 13,2 C 13,5 C 74 % 1013,7 hPa 0,0 l/m 0,0 km/h (0 Bft) N 0 0 min 0,000 mm 0 W/m 8,7 C 13,2 C 0,0 km/h (0 Bft) 100 %
02.05.2022 21:40 12,9 C 12,9 C 13,2 C 75 % 1013,8 hPa 0,0 l/m 0,0 km/h (0 Bft) N 0 0 min 0,000 mm 0 W/m 8,6 C 12,9 C 0,0 km/h (0 Bft) 100 %
02.05.2022 21:50 12,6 C 12,6 C 12,9 C 77 % 1013,8 hPa 0,0 l/m 0,0 km/h (0 Bft) N 0 0 min 0,000 mm 0 W/m 8,7 C 12,6 C 0,0 km/h (0 Bft) 100 %
02.05.2022 22:00 12,2 C 12,2 C 12,6 C 80 % 1014,0 hPa 0,0 l/m 0,0 km/h (0 Bft) N 0 0 min 0,025 mm 0 W/m 8,9 C 12,2 C 0,0 km/h (0 Bft) 100 %
02.05.2022 22:10 12,1 C 12,1 C 12,2 C 80 % 1014,0 hPa 0,0 l/m 0,0 km/h (0 Bft) N 0 0 min 0,000 mm 0 W/m 8,8 C 12,1 C 0,0 km/h (0 Bft) 100 %
02.05.2022 22:20 11,9 C 11,9 C 12,1 C 80 % 1013,9 hPa 0,0 l/m 0,0 km/h (0 Bft) N 0 0 min 0,000 mm 0 W/m 8,6 C 11,9 C 0,0 km/h (0 Bft) 100 %
02.05.2022 22:30 11,8 C 11,8 C 11,9 C 81 % 1013,9 hPa 0,0 l/m 0,0 km/h (0 Bft) N 0 0 min 0,000 mm 0 W/m 8,6 C 11,8 C 0,0 km/h (0 Bft) 99 %
02.05.2022 22:40 11,5 C 11,5 C 11,8 C 82 % 1013,9 hPa 0,0 l/m 0,0 km/h (0 Bft) N 0 0 min 0,000 mm 0 W/m 8,5 C 11,5 C 0,0 km/h (0 Bft) 100 %
02.05.2022 22:50 11,2 C 11,2 C 11,5 C 82 % 1014,1 hPa 0,0 l/m 0,0 km/h (0 Bft) N 0 0 min 0,000 mm 0 W/m 8,2 C 11,2 C 0,0 km/h (0 Bft) 100 %
02.05.2022 23:00 11,1 C 11,1 C 11,2 C 83 % 1014,0 hPa 0,0 l/m 0,0 km/h (0 Bft) N 0 0 min 0,025 mm 0 W/m 8,3 C 11,1 C 0,0 km/h (0 Bft) 100 %
02.05.2022 23:10 10,9 C 10,9 C 11,1 C 84 % 1013,9 hPa 0,0 l/m 0,0 km/h (0 Bft) N-NW 337 0 min 0,000 mm 0 W/m 8,3 C 10,9 C 1,6 km/h (1 Bft) 100 %
02.05.2022 23:20 10,7 C 10,7 C 10,9 C 84 % 1014,1 hPa 0,0 l/m 0,0 km/h (0 Bft) N 0 0 min 0,000 mm 0 W/m 8,1 C 10,7 C 0,0 km/h (0 Bft) 100 %
02.05.2022 23:30 10,5 C 10,5 C 10,7 C 85 % 1014,1 hPa 0,0 l/m 0,0 km/h (0 Bft) N 0 0 min 0,000 mm 0 W/m 8,1 C 10,5 C 0,0 km/h (0 Bft) 99 %
02.05.2022 23:40 10,2 C 10,2 C 10,5 C 86 % 1014,1 hPa 0,0 l/m 0,0 km/h (0 Bft) N 0 0 min 0,000 mm 0 W/m 8,0 C 10,2 C 0,0 km/h (0 Bft) 100 %
02.05.2022 23:50 9,9 C 9,9 C 10,2 C 87 % 1014,1 hPa 0,0 l/m 0,0 km/h (0 Bft) N 0 0 min 0,000 mm 0 W/m 7,8 C 9,9 C 0,0 km/h (0 Bft) 100 %
_ Min-Zeit 06:20 06:20 06:30 18:00 19:00 - 00:00 - - - - - 06:20 06:20 00:00 07:10
Minimum _ 6,7 C 6,7 C 6,7 C 56 % 1013,1 hPa - 0,0 km/h (0 Bft) - - - - - 5,3 C 6,7 C 0,0 km/h (0 Bft) 89 %
_ Max-Zeit 18:00 18:00 18:00 02:50 00:00 00:00 12:00 - - 13:20 12:00 12:20 11:50 17:50 12:00 00:00
Maximum _ 18,9 C 18,8 C 18,9 C 91 % 1018,0 hPa 0,0 l/m 1,6 km/h
SO (1 Bft)
- - 20 min 0,381 mm 889 W/m 11,3 C 18,8 C 9,7 km/h
SO (2 Bft)
100 %
Durchschnitt _ 12,8 C 12,7 C 13,0 C 77 % 1015,4 hPa #0,0 l/m 0,0 km/h (0 Bft) SO - #10:10 h #2,463 mm 319 W/m 8,6 C 12,8 C 1,6 km/h (1 Bft) 98 %
PRIVATE WETTERSTATION BILLIGHEIM-ALLFELD - www.neckar-odenwald-wetter.de - Holger Sonntag